Location: B?lite?ti
(46.2833°N, 22.7333°E)
Time: 16:51:41
(UTC+00:00)

SAR-Lupe-1 - Pass Details

Date: 24 January 2021
Orbit: 481 x 485 km, 98.2° (Epoch: 27 February)

Event Time Altitude Azimuth Distance (km) Brightness Sun altitude
Exits shadow 17:02:20 27° 29° (NNE) 953 5.2 -17.2°
Maximum altitude 17:04:06 63° 102° (ESE) 544 4.0 -17.5°
Drops below altitude 10° 17:07:38 10° 184° (S) 1,657 6.9 -18.1°
Sets 17:09:42 0° 188° (S) 2,532 7.9 -18.4°
